This is the latest recevied weather packets stored in our database for station/object KC9Q. If no packets are shown the sender has not sent any weather packets the latest 10 day(s).
| Time | Temp. | Humidity | Pressure | Rain* | Wind** | Luminosity | Snow |
|---|---|---|---|---|---|---|---|
| 1777119596 | 15.56° C | 99% | 1010 hPa | 0 mm | - | 34 W/m² | - |
| 1777119293 | 15.56° C | 99% | 1009.6 hPa | 0 mm | - | 29 W/m² | - |
| 1777118993 | 15° C | 99% | 1009.8 hPa | 0 mm | - | 24 W/m² | - |
| 1777118689 | 15° C | 99% | 1009.8 hPa | 0 mm | - | 20 W/m² | - |
| 1777118384 | 15° C | 99% | 1009.9 hPa | 0 mm | - | 17 W/m² | - |
| 1777118081 | 15° C | 99% | 1009.5 hPa | 0 mm | - | 15 W/m² | - |
| 1777117778 | 15° C | 99% | 1009.7 hPa | 0 mm | - | 14 W/m² | - |
| 1777117475 | 15° C | 99% | 1009.7 hPa | 0 mm | - | 14 W/m² | - |
| 1777117172 | 15° C | 99% | 1009.6 hPa | 0 mm | - | 14 W/m² | - |
| 1777116867 | 15° C | 99% | 1009.7 hPa | 0 mm | - | 14 W/m² | - |
| 1777116563 | 15° C | 99% | 1009.5 hPa | 0 mm | - | 10 W/m² | - |
| 1777116260 | 15° C | 99% | 1009.5 hPa | 0 mm | - | 7 W/m² | - |
| 1777115955 | 15° C | 99% | 1009.5 hPa | 0 mm | - | 4 W/m² | - |
| 1777115649 | 15° C | 99% | 1009.5 hPa | 0 mm | - | 3 W/m² | - |
| 1777115345 | 15.56° C | 99% | 1009.3 hPa | 0 mm | - | 2 W/m² | - |
| 1777115042 | 15° C | 99% | 1009.5 hPa | 0 mm | - | 1 W/m² | - |
| 1777114739 | 15.56° C | 99% | 1009.3 hPa | 0 mm | - | 0 W/m² | - |
| 1777114435 | 15.56° C | 99% | 1009.1 hPa | 0 mm | - | 0 W/m² | - |
| 1777114131 | 15.56° C | 99% | 1009 hPa | 0 mm | - | 0 W/m² | - |
| 1777113827 | 15.56° C | 99% | 1009.1 hPa | 0 mm | - | 0 W/m² | - |
| 1777113526 | 15.56° C | 99% | 1009.1 hPa | 0 mm | - | 0 W/m² | - |
| 1777113225 | 15.56° C | 99% | 1009.1 hPa | 0 mm | - | 0 W/m² | - |
| 1777112921 | 15.56° C | 99% | 1009.1 hPa | 0 mm | - | 0 W/m² | - |
| 1777112618 | 15.56° C | 99% | 1009 hPa | 0 mm | - | 0 W/m² | - |
| 1777112314 | 15.56° C | 99% | 1008.9 hPa | 0 mm | - | 0 W/m² | - |
* Rain latest hour (hover to see other rain measurements)
** Current wind speed in m/s (hover to see current wind gust speed)